| time (UTC) | temp F | wind direction | speed knots | gust knots | rain 1hr in | rain 24hr in | rain mn in | humidity % | barometer mb |
| 20260505183524 | 56 | 349 | 1.7 | 5.2 | 0.00 | 0.00 | 0.00 | 70 | 1011.7 |
| 20260505182519 | 56 | 343 | 2.6 | 3.5 | 0.00 | 0.00 | 0.00 | 70 | 1011.5 |
| 20260505181534 | 56 | 335 | 1.7 | 3.5 | 0.00 | 0.00 | 0.00 | 70 | 1011.6 |
| 20260505180529 | 56 | 327 | 1.7 | 2.6 | 0.00 | 0.00 | 0.00 | 70 | 1011.6 |
| 20260505175523 | 56 | 336 | 1.7 | 2.6 | 0.00 | 0.00 | 0.00 | 69 | 1011.7 |
| 20260505174519 | 56 | 340 | 1.7 | 3.5 | 0.00 | 0.00 | 0.00 | 69 | 1011.7 |
| 20260505173533 | 56 | 344 | 2.6 | 5.2 | 0.00 | 0.00 | 0.00 | 68 | 1011.7 |
| 20260505172526 | 56 | 340 | 4.3 | 7.0 | 0.00 | 0.00 | 0.00 | 68 | 1011.8 |
| 20260505171521 | 56 | 343 | 3.5 | 6.1 | 0.00 | 0.00 | 0.00 | 68 | 1011.7 |
| 20260505170609 | 57 | 337 | 5.2 | 7.8 | 0.00 | 0.00 | 0.00 | 68 | 1011.8 |
| 20260505165604 | 57 | 331 | 5.2 | 7.8 | 0.00 | 0.00 | 0.00 | 67 | 1011.9 |
| 20260505164520 | 57 | 329 | 2.6 | 5.2 | 0.00 | 0.00 | 0.00 | 66 | 1011.8 |
| 20260505163516 | 58 | 332 | 3.5 | 7.0 | 0.00 | 0.00 | 0.00 | 65 | 1011.8 |
| 20260505162611 | 57 | 338 | 2.6 | 5.2 | 0.00 | 0.00 | 0.00 | 65 | 1011.8 |
| 20260505161527 | 57 | 329 | 3.5 | 6.1 | 0.00 | 0.00 | 0.00 | 64 | 1011.8 |
| 20260505160603 | 57 | 337 | 2.6 | 5.2 | 0.00 | 0.00 | 0.00 | 65 | 1011.9 |
| 20260505152526 | 57 | 333 | 3.5 | 6.1 | 0.00 | 0.00 | 0.00 | 66 | 1011.9 |
| 20260505151522 | 57 | 340 | 2.6 | 6.1 | 0.00 | 0.00 | 0.00 | 65 | 1012.0 |
| 20260505150518 | 57 | 353 | 1.7 | 3.5 | 0.00 | 0.00 | 0.00 | 65 | 1012.1 |
| 20260505140614 | 58 | 349 | 5.2 | 7.8 | 0.00 | 0.00 | 0.00 | 62 | 1012.1 |
| 20260505124521 | 57 | 333 | 4.3 | 9.6 | 0.00 | 0.00 | 0.00 | 68 | 1012.5 |
| 20260505123517 | 57 | 322 | 3.5 | 7.8 | 0.00 | 0.00 | 0.00 | 68 | 1012.5 |
| 20260505122533 | 57 | 345 | 3.5 | 7.8 | 0.00 | 0.00 | 0.00 | 66 | 1012.6 |
| 20260505121529 | 56 | 342 | 3.5 | 6.1 | 0.00 | 0.00 | 0.00 | 68 | 1012.6 |
| 20260505120525 | 56 | 359 | 4.3 | 7.8 | 0.00 | 0.00 | 0.00 | 68 | 1012.6 |
| 20260505115520 | 56 | 351 | 3.5 | 7.0 | 0.00 | 0.00 | 0.00 | 69 | 1012.7 |
| 20260505114517 | 55 | 349 | 3.5 | 7.8 | 0.00 | 0.00 | 0.00 | 71 | 1012.7 |
| 20260505113533 | 54 | 8 | 4.3 | 7.0 | 0.00 | 0.00 | 0.00 | 73 | 1012.8 |
| 20260505112528 | 54 | 27 | 4.3 | 7.8 | 0.00 | 0.00 | 0.00 | 74 | 1012.8 |
| 20260505111603 | 54 | 45 | 5.2 | 11.3 | 0.00 | 0.00 | 0.00 | 74 | 1013.0 |
| 20260505110520 | 55 | 36 | 7.0 | 11.3 | 0.00 | 0.00 | 0.00 | 73 | 1012.9 |
| 20260505101519 | 53 | 358 | 3.5 | 8.7 | 0.00 | 0.00 | 0.00 | 78 | 1013.0 |
| 20260505100536 | 53 | 8 | 3.5 | 7.8 | 0.00 | 0.00 | 0.00 | 78 | 1013.0 |
| 20260505095531 | 53 | 332 | 5.2 | 7.8 | 0.00 | 0.00 | 0.00 | 78 | 1013.1 |
| 20260505094607 | 53 | 333 | 3.5 | 7.0 | 0.00 | 0.00 | 0.00 | 79 | 1013.2 |
| 20260505093523 | 53 | 10 | 4.3 | 8.7 | 0.00 | 0.00 | 0.00 | 77 | 1013.2 |
| 20260505092519 | 52 | 26 | 3.5 | 7.8 | 0.00 | 0.00 | 0.00 | 79 | 1013.2 |
| 20260505091535 | 53 | 14 | 4.3 | 8.7 | 0.00 | 0.00 | 0.00 | 78 | 1013.3 |
| 20260505090531 | 52 | 10 | 4.3 | 7.8 | 0.00 | 0.00 | 0.00 | 79 | 1013.3 |
| 20260505085527 | 52 | 0 | 5.2 | 9.6 | 0.00 | 0.00 | 0.00 | 79 | 1013.3 |
| 20260505084523 | 52 | 6 | 4.3 | 8.7 | 0.00 | 0.00 | 0.00 | 80 | 1013.3 |
| 20260505083518 | 52 | 353 | 5.2 | 8.7 | 0.00 | 0.00 | 0.00 | 80 | 1013.4 |
| 20260505082614 | 52 | 6 | 4.3 | 7.8 | 0.00 | 0.00 | 0.00 | 81 | 1013.3 |
| 20260505081531 | 52 | 16 | 5.2 | 7.8 | 0.00 | 0.00 | 0.00 | 81 | 1013.3 |
| 20260505080606 | 52 | 20 | 4.3 | 7.8 | 0.00 | 0.00 | 0.00 | 80 | 1013.3 |
| 20260505075522 | 53 | 354 | 6.1 | 12.2 | 0.00 | 0.00 | 0.00 | 80 | 1013.3 |
| 20260505074518 | 52 | 357 | 4.3 | 8.7 | 0.00 | 0.00 | 0.00 | 81 | 1013.2 |
| 20260505073533 | 52 | 340 | 4.3 | 9.6 | 0.00 | 0.00 | 0.00 | 84 | 1013.2 |
| 20260505072529 | 52 | 340 | 4.3 | 9.6 | 0.00 | 0.00 | 0.00 | 85 | 1013.2 |
| 20260505071525 | 52 | 340 | 4.3 | 7.0 | 0.00 | 0.00 | 0.00 | 86 | 1013.3 |
| 20260505070521 | 51 | 335 | 3.5 | 6.1 | 0.00 | 0.00 | 0.00 | 87 | 1013.4 |
| 20260505065516 | 51 | 338 | 2.6 | 5.2 | 0.00 | 0.00 | 0.00 | 88 | 1013.4 |
| 20260505064531 | 51 | 342 | 2.6 | 5.2 | 0.00 | 0.00 | 0.00 | 88 | 1013.5 |
| 20260505063528 | 51 | 354 | 2.6 | 5.2 | 0.00 | 0.00 | 0.00 | 88 | 1013.3 |
| 20260505062523 | 51 | 9 | 1.7 | 2.6 | 0.00 | 0.00 | 0.00 | 89 | 1013.3 |
| 20260505061520 | 50 | 9 | 0.9 | 2.6 | 0.00 | 0.00 | 0.00 | 91 | 1013.4 |
| 20260505060535 | 50 | 340 | 2.6 | 7.0 | 0.00 | 0.00 | 0.00 | 92 | 1013.4 |
| 20260505055531 | 49 | 350 | 3.5 | 7.8 | 0.00 | 0.00 | 0.00 | 92 | 1013.3 |
| 20260505054527 | 49 | 341 | 3.5 | 7.0 | 0.00 | 0.00 | 0.00 | 92 | 1013.2 |
| 20260505053523 | 49 | 12 | 2.6 | 5.2 | 0.00 | 0.00 | 0.00 | 92 | 1013.3 |
| 20260505052518 | 49 | 24 | 2.6 | 6.1 | 0.00 | 0.00 | 0.00 | 92 | 1013.3 |
| 20260505051535 | 49 | 352 | 3.5 | 7.0 | 0.00 | 0.00 | 0.00 | 93 | 1013.4 |
| 20260505050530 | 49 | 10 | 2.6 | 5.2 | 0.00 | 0.00 | 0.00 | 93 | 1013.3 |
| 20260505041529 | 49 | 340 | 3.5 | 5.2 | 0.00 | 0.00 | 0.00 | 92 | 1013.6 |
| 20260505040605 | 49 | 333 | 2.6 | 3.5 | 0.00 | 0.00 | 0.00 | 92 | 1013.5 |
| 20260505035601 | 49 | 323 | 1.7 | 1.7 | 0.00 | 0.00 | 0.00 | 91 | 1013.6 |
| 20260505034517 | 50 | 15 | 0.0 | 0.9 | 0.00 | 0.00 | 0.00 | 91 | 1013.5 |
| 20260505033532 | 50 | 340 | 0.9 | 1.7 | 0.00 | 0.00 | 0.00 | 90 | 1013.6 |
| 20260505032528 | 50 | 354 | 0.9 | 1.7 | 0.00 | 0.00 | 0.00 | 90 | 1013.7 |
| 20260505031524 | 50 | 8 | 1.7 | 3.5 | 0.00 | 0.00 | 0.00 | 90 | 1013.7 |
| 20260505030600 | 50 | 345 | 1.7 | 3.5 | 0.00 | 0.00 | 0.00 | 90 | 1013.8 |
| 20260505025516 | 50 | 336 | 3.5 | 6.1 | 0.00 | 0.00 | 0.00 | 89 | 1013.8 |
| 20260505024612 | 50 | 335 | 2.6 | 5.2 | 0.00 | 0.00 | 0.00 | 90 | 1013.8 |
| 20260505023527 | 50 | 345 | 1.7 | 2.6 | 0.00 | 0.00 | 0.00 | 90 | 1013.8 |
| 20260505022523 | 50 | 2 | 0.9 | 2.6 | 0.00 | 0.00 | 0.00 | 89 | 1013.8 |
| 20260505021518 | 51 | 356 | 0.9 | 2.6 | 0.00 | 0.00 | 0.00 | 89 | 1013.7 |
| 20260505020533 | 51 | 360 | 1.7 | 2.6 | 0.00 | 0.00 | 0.00 | 89 | 1013.7 |
| 20260505015530 | 51 | 336 | 2.6 | 3.5 | 0.00 | 0.00 | 0.00 | 89 | 1013.8 |
| 20260505014525 | 51 | 334 | 1.7 | 1.7 | 0.00 | 0.00 | 0.00 | 89 | 1014.1 |
| 20260505013521 | 51 | 330 | 2.6 | 3.5 | 0.00 | 0.00 | 0.00 | 89 | 1014.1 |
| 20260505012557 | 51 | 327 | 0.9 | 2.6 | 0.00 | 0.00 | 0.00 | 88 | 1014.2 |
| 20260505011533 | 52 | 0.0 | 0.0 | 0.00 | 0.00 | 0.00 | 87 | 1014.2 | |
| 20260505010529 | 52 | 24 | 0.9 | 2.6 | 0.00 | 0.00 | 0.00 | 87 | 1014.1 |
| 20260505005605 | 51 | 35 | 0.9 | 2.6 | 0.00 | 0.00 | 0.00 | 87 | 1014.3 |
| 20260505004603 | 52 | 26 | 0.9 | 1.7 | 0.00 | 0.00 | 0.00 | 87 | 1014.3 |
| 20260505003516 | 52 | 36 | 0.9 | 2.6 | 0.00 | 0.00 | 0.00 | 87 | 1014.4 |
| 20260505002612 | 52 | 39 | 1.7 | 2.6 | 0.00 | 0.00 | 0.00 | 86 | 1014.4 |
| 20260505001528 | 52 | 10 | 1.7 | 3.5 | 0.00 | 0.00 | 0.00 | 86 | 1014.5 |
| 20260505000524 | 52 | 23 | 2.6 | 5.2 | 0.00 | 0.00 | 0.00 | 86 | 1014.5 |
| 20260504235520 | 53 | 9 | 2.6 | 3.5 | 0.00 | 0.00 | 0.00 | 85 | 1014.6 |
| 20260504234516 | 53 | 28 | 3.5 | 6.1 | 0.00 | 0.00 | 0.00 | 85 | 1014.6 |
| 20260504233532 | 53 | 5 | 2.6 | 6.1 | 0.00 | 0.00 | 0.00 | 85 | 1014.6 |
| 20260504232528 | 53 | 9 | 1.7 | 3.5 | 0.00 | 0.00 | 0.00 | 84 | 1014.6 |
| 20260504231525 | 53 | 9 | 2.6 | 5.2 | 0.00 | 0.00 | 0.00 | 84 | 1014.6 |
| 20260504230520 | 53 | 18 | 2.6 | 5.2 | 0.00 | 0.00 | 0.00 | 84 | 1014.5 |
| 20260504225536 | 53 | 10 | 2.6 | 6.1 | 0.00 | 0.00 | 0.00 | 84 | 1014.6 |
| 20260504224532 | 54 | 36 | 2.6 | 5.2 | 0.00 | 0.00 | 0.00 | 83 | 1014.6 |
| 20260504223528 | 54 | 23 | 2.6 | 6.1 | 0.00 | 0.00 | 0.00 | 83 | 1014.7 |
| 20260504222524 | 54 | 21 | 2.6 | 6.1 | 0.00 | 0.00 | 0.00 | 83 | 1014.7 |
| 20260504221519 | 54 | 20 | 2.6 | 5.2 | 0.00 | 0.00 | 0.00 | 83 | 1014.9 |
| 20260504220535 | 54 | 2 | 1.7 | 3.5 | 0.00 | 0.00 | 0.00 | 83 | 1014.9 |
| 20260504215531 | 54 | 18 | 2.6 | 6.1 | 0.00 | 0.00 | 0.00 | 84 | 1014.9 |
| 20260504214527 | 54 | 13 | 1.7 | 3.5 | 0.00 | 0.00 | 0.00 | 84 | 1014.9 |
| 20260504213523 | 54 | 13 | 0.9 | 2.6 | 0.00 | 0.00 | 0.00 | 84 | 1015.0 |
| 20260504212517 | 54 | 13 | 1.7 | 3.5 | 0.00 | 0.00 | 0.00 | 84 | 1014.9 |
| 20260504211533 | 54 | 31 | 2.6 | 3.5 | 0.00 | 0.00 | 0.00 | 84 | 1015.0 |
| 20260504210609 | 54 | 23 | 1.7 | 2.6 | 0.00 | 0.00 | 0.00 | 84 | 1014.9 |
| 20260504205524 | 55 | 355 | 1.7 | 3.5 | 0.00 | 0.00 | 0.00 | 84 | 1014.8 |
| 20260504204518 | 55 | 18 | 0.9 | 2.6 | 0.00 | 0.00 | 0.00 | 83 | 1014.9 |
| 20260504203533 | 54 | 21 | 1.7 | 2.6 | 0.00 | 0.00 | 0.00 | 84 | 1014.8 |
| 20260504202528 | 54 | 36 | 1.7 | 3.5 | 0.00 | 0.00 | 0.00 | 84 | 1014.8 |
| 20260504201524 | 54 | 32 | 1.7 | 2.6 | 0.00 | 0.00 | 0.00 | 83 | 1014.7 |
| 20260504200518 | 55 | 26 | 1.7 | 2.6 | 0.00 | 0.00 | 0.00 | 83 | 1014.7 |
| 20260504195534 | 55 | 30 | 1.7 | 2.6 | 0.00 | 0.00 | 0.00 | 82 | 1014.6 |
| 20260504194529 | 55 | 29 | 2.6 | 5.2 | 0.00 | 0.00 | 0.00 | 82 | 1014.6 |
| 20260504193524 | 55 | 20 | 1.7 | 5.2 | 0.00 | 0.00 | 0.00 | 81 | 1014.5 |
| 20260504192519 | 56 | 344 | 1.7 | 3.5 | 0.00 | 0.00 | 0.00 | 81 | 1014.4 |
| 20260504191534 | 56 | 17 | 1.7 | 3.5 | 0.00 | 0.00 | 0.00 | 80 | 1014.4 |
| 20260504190530 | 56 | 21 | 2.6 | 5.2 | 0.00 | 0.00 | 0.00 | 80 | 1014.3 |
| 20260504185525 | 56 | 15 | 2.6 | 5.2 | 0.00 | 0.00 | 0.00 | 79 | 1014.3 |
| 20260504184601 | 56 | 30 | 2.6 | 3.5 | 0.00 | 0.00 | 0.00 | 79 | 1014.2 |